Regional Weather Roundup
Issued by NWS

Home | Current Version | Previous Version | Graphics & Text | Print | Product List | Glossary On
Versions: 1 2 3 4 5 6 7 8 9 10 11 12 13 14 15 16 17 18 19 20 21 22 23 24 25 26 27 28 29 30 31 32 33 34 35 36 37 38 39 40 41 42 43 44 45 46 47 48 49 50
000
ASUS43 KOAX 220802
RWRNE

WEATHER ROUNDUP FOR NEBRASKA
NATIONAL WEATHER SERVICE OMAHA NE
300 AM CDT FRI MAY 22 2015

NOTES: SATELLITE DATA IS BEING USED TO AUGMENT CLOUD COVER ABOVE
       12000 FEET.
       "FAIR" INDICATES FEW OR NO CLOUDS BELOW 12,000 FEET WITH NO
       SIGNIFICANT WEATHER AND/OR OBSTRUCTIONS TO VISIBILITY.

  * THESE STATIONS DO NOT REPORT WEATHER SUCH AS RAIN...SNOW OR FOG.

NEZ001>004-019>022-054>056-220900-
NEBRASKA PANHANDLE

CITY           SKY/WX    TMP DP  RH WIND       PRES   REMARKS
SCOTTSBLUFF    CLOUDY    51  45  79 SE12      30.10S
ALLIANCE       CLOUDY    50  42  74 SE16      30.11S
CHADRON        CLOUDY    53  44  71 SE13      30.10S
SIDNEY         CLOUDY    49  43  80 SE12      30.12F
$$

NEZ057>060-069>072-079>082-220900-
SOUTHWEST NEBRASKA

CITY           SKY/WX    TMP DP  RH WIND       PRES   REMARKS
NORTH PLATTE   PTCLDY    45  41  86 E8        30.17F
IMPERIAL       CLOUDY    47  43  86 S7        30.15F
MCCOOK         CLOUDY    47  43  86 SE6       30.17F
$$

NEZ005>010-023>029-035>040-094-220900-
NORTH CENTRAL NEBRASKA

CITY           SKY/WX    TMP DP  RH WIND       PRES   REMARKS
VALENTINE      CLEAR     46  38  73 CALM      30.16F
BROKEN BOW     PTCLDY    41  38  89 CALM      30.19F
ORD            PTCLDY    40  35  83 CALM      30.19F
$$

NEZ041-046>049-061>064-073>077-083>087-220900-
SOUTH CENTRAL NEBRASKA

CITY           SKY/WX    TMP DP  RH WIND       PRES   REMARKS
GRAND ISLAND   MOCLDY    50  41  71 CALM      30.21F
HASTINGS       MOCLDY    48  41  76 CALM      30.20F
KEARNEY *      MOCLDY    45  39  81 CALM      30.20F
$$

NEZ011>018-030>034-042>045-220900-
NORTHEAST NEBRASKA

CITY           SKY/WX    TMP DP  RH WIND       PRES   REMARKS
NORFOLK        CLEAR     47  40  76 CALM      30.19F
COLUMBUS *     PTCLDY    45  36  70 CALM      30.23F
TEKAMAH        CLEAR     53  40  61 SW6       30.19R
$$

NEZ050>053-065>068-078-088>093-220900-
SOUTHEAST NEBRASKA

CITY           SKY/WX    TMP DP  RH WIND       PRES   REMARKS
LINCOLN        MOCLDY    53  42  66 W3        30.22F
OMAHA EPPLEY   PTCLDY    59  40  49 W5        30.20S
FALLS CITY     PTCLDY    51  44  77 CALM      30.20S
$$

NEZ044-045-051>053-067-220900-
OMAHA AREA

CITY           SKY/WX    TMP DP  RH WIND       PRES   REMARKS
OMAHA EPPLEY   PTCLDY    59  40  49 W5        30.20S
OFFUTT AFB     CLEAR     47  42  82 CALM      30.19F
$$



USA.gov is the U.S. government's official web portal to all federal, state and local government web resources and services.